Regional Weather Roundup
Issued by NWS

Home | Current Version | Previous Version | Text Only | Print | Product List | Glossary On
Versions: 1 2 3 4 5 6 7 8 9 10 11 12 13 14 15 16 17 18 19 20 21 22 23 24 25 26 27 28 29 30 31 32 33 34 35 36 37 38 39 40 41 42 43 44 45 46 47 48 49 50
000
ASUS43 KTOP 222108
RWRKS

WEATHER ROUNDUP FOR KANSAS
NATIONAL WEATHER SERVICE GOODLAND KS
400 PM CDT MON MAY 22 2017

NOTE:  "FAIR" INDICATES FEW OR NO CLOUDS BELOW 12,000 FEET WITH NO
SIGNIFICANT WEATHER AND/OR OBSTRUCTIONS TO VISIBILITY.

KSZ001>006-013>018-027>032-041>047-222200-
NORTHWEST KANSAS

CITY           SKY/WX    TMP DP  RH WIND       PRES   REMARKS
GOODLAND       MOSUNNY   69  36  29 NW10      29.98F
HAYS           CLOUDY    67  52  58 SW8       29.97F
HILL CITY      MOSUNNY   71  45  39 CALM      29.94F
RUSSELL        MOSUNNY   66  55  67 W8        29.95F
$$

KSZ061>065-074>080-084>089-222200-
SOUTHWEST KANSAS

CITY           SKY/WX    TMP DP  RH WIND       PRES   REMARKS
DODGE CITY     CLOUDY    61  51  70 NW6       30.01F
ELKHART          N/A     60  44  55 N8          N/A
GARDEN CITY    CLOUDY    65  46  50 VRB5      30.01F
GREAT BEND     CLOUDY    64  53  67 NW8       29.98F
LIBERAL        CLOUDY    60  54  80 N13       30.05F
PRATT          CLOUDY    58  53  84 NW8       29.99F
$$

KSZ066>073-081>083-090>101-222200-
SOUTHEAST KANSAS

CITY           SKY/WX    TMP DP  RH WIND       PRES   REMARKS
CHANUTE        CLOUDY    71  51  49 SW9       29.97F
COFFEYVILLE    CLOUDY    72  57  59 S8        29.97F
HUTCHINSON     RAIN      60  55  83 CALM      29.98F
MEDICINE LODGE   N/A     66  55  67 NW14G21   29.97F
NEWTON         CLOUDY    64  54  69 S5        29.98F
PARSONS        CLOUDY    72  51  47 S5        29.98F
WICHITA INTL   CLOUDY    67  52  58 S13       29.97F
WICHITA JABRA  CLOUDY    67  53  61 S10       29.97F
WICHITA MCCONL CLOUDY    67  51  56 S12       29.97F
WINFIELD       CLOUDY    66  54  65 SW8       30.00F
$$

KSZ007>012-019>026-033>040-048>060-102>105-222200-
NORTHEAST KANSAS

CITY           SKY/WX    TMP DP  RH WIND       PRES   REMARKS
CONCORDIA      CLOUDY    63  59  87 SW8       29.94F
EMPORIA        CLOUDY    68  55  63 SW7       29.98F
LAWRENCE       CLOUDY    66  56  70 NW18      29.97S
MANHATTAN      LGT RAIN  61  57  87 SW3       29.98F
MARYSVILLE     CLOUDY    61  57  88 S6        29.95F
OLATHE IND     CLOUDY    70  55  59 W12       29.97
OLATHE EXE     CLOUDY    70  56  61 SW12G18   29.96F THUNDER
SALINA         RAIN      62  59  90 S8        29.97F FOG
TOPEKA BILLARD TSTM      62  60  93 NW6       29.98F
TOPEKA FORBES  HVY RAIN  61  58  90 N3        29.99R
$$




USA.gov is the U.S. government's official web portal to all federal, state and local government web resources and services.